Regional Weather Roundup
Issued by NWS

Home | Current Version | Previous Version | Graphics & Text | Print | Product List | Glossary On
Versions: 1 2 3 4 5 6 7 8 9 10 11 12 13 14 15 16 17 18 19 20 21 22 23 24 25 26 27 28 29 30 31 32 33 34 35 36 37 38 39 40 41 42 43 44 45 46 47 48 49 50
000
ASUS43 KLOT 190206
RWRIL

ILLINOIS REGIONAL WEATHER ROUNDUP
NATIONAL WEATHER SERVICE CHICAGO/ROMEOVILLE IL
900 PM CDT THU SEP 18 2014

NOTE: "FAIR" INDICATES FEW OR NO CLOUDS BELOW 12,000 FEET WITH NO
SIGNIFICANT WEATHER AND/OR OBSTRUCTIONS TO VISIBILITY.

* THESE STATIONS ARE NOT UNDER NWS QUALITY CONTROL. THEY ALSO MAY NOT
  REPORT WEATHER SUCH AS PRECIPITATION OR FOG.

ILZ001-002-007-009-015-016-024-190300-
NORTHWEST ILLINOIS

CITY           SKY/WX    TMP DP  RH WIND       PRES   REMARKS
MOLINE         CLEAR     59  51  75 E8        30.08R
STERLING*      CLEAR     55  50  82 SE6       30.11R
SAVANNA*       CLEAR     58  51  78 E5        30.11R
$$

ILZ003-004-008-010-011-017-018-190300-
NORTH CENTRAL ILLINOIS

CITY           SKY/WX    TMP DP  RH WIND       PRES   REMARKS
ROCKFORD       PTCLDY    59  53  80 E12       30.15R
FREEPORT*      CLEAR     52  50  92 E3        30.15R
ROCHELLE*      CLEAR     58  54  84 E8        30.13R
DE KALB*       CLEAR     53  51  92 E7        30.15R
PERU*          CLEAR     60  52  74 E9        30.12R
$$

ILZ005-006-012>014-019>023-190300-
NORTHEAST ILLINOIS

CITY           SKY/WX    TMP DP  RH WIND       PRES   REMARKS
CHICAGO-OHARE  PTCLDY    59  53  80 N6        30.15R
CHICAGO-MIDWAY PTCLDY    61  56  83 N7        30.15R
AURORA         CLEAR     57  52  83 NE5       30.13S
LANSING*       CLEAR     58  56  91 N3        30.15R
JOLIET*        CLEAR     58  52  81 NE3       30.14R
WAUKEGAN       CLEAR     53  51  93 N5        30.15R
DUPAGE AIRPORT CLEAR     56  52  86 NE6       30.14R
KANKAKEE*      CLEAR     56  55  94 NE6       30.13R
WHEELING       CLEAR     56  52  86 CALM      30.17R
MORRIS*        CLEAR     57  55  92 CALM      30.13R
ROMEOVILLE*    CLEAR     58  54  86 NE10      30.14R
NORTHERLY ISL    N/A     59  56  89 MISG        N/A
$$

LMZ740>746-190300-
SOUTHERN LAKE MICHIGAN

STATION/POSITION SKY/WX   TEMP    WIND        PRES    VSBY  WAVE
                          AIR SEA DIR/SP/G                  HT/PER
                          (F)     (DEG/KT/KT) (MB)    (MI)  (FT/S)
SOUTHERN BUOY              60 65   10/  8/ 10 1021.6R         2/ 6
WAUKEGAN HARBOR            56     360/  7/  9   N/A
HARRISON CRIB              60      10/ 11/ 12   N/A
BURNHAM HARBOR             60     350/  7/ 10   N/A
CALUMET HARBOR             60     360/  6/  7 1019.6R
MICHIGAN CITY              63      30/ 12/ 14   N/A
MICHIGAN CITY 6N           64 65   50/ 10/ 14   N/A           3/ 2
ST. JOSEPH                 63 66   50/ 10/ 14   N/A           2/ 2
$$

ILZ025>027-034>036-040-047-049-050-058-095>099-190300-
WEST-CENTRAL ILLINOIS

CITY           SKY/WX    TMP DP  RH WIND       PRES   REMARKS
QUINCY         CLEAR     63  53  70 SE3       30.06R
GALESBURG*     CLEAR     60  50  70 E5        30.09R
MACOMB*        CLEAR     56  52  88 E5        30.10R
JACKSONVILLE*  CLEAR     58  53  83 E6        30.08R
PITTSFIELD*    CLEAR     58  55  88 CALM      30.08R
$$

ILZ028>032-037-038-041>044-048-051>054-059>061-190300-
CENTRAL ILLINOIS

CITY           SKY/WX    TMP DP  RH WIND       PRES   REMARKS
PONTIAC        CLEAR     61  55  82 NE7       30.11R
DECATUR        CLEAR     56  48  74 E3        30.10R
PEORIA         CLEAR     60  50  69 NE5       30.10R
LACON*         CLEAR     57  50  77 E6        30.09R
LINCOLN*       CLEAR     58  49  73 NE5       30.07R
SPRINGFIELD    CLEAR     60  50  69 NE6       30.08R
TAYLORVILLE    CLEAR     59  46  63 E6        30.08R
$$

ILZ033-039-045-046-055>057-062-063-190300-
EAST-CENTRAL ILLINOIS

CITY           SKY/WX    TMP DP  RH WIND       PRES   REMARKS
CHAMPAIGN      CLEAR     58  47  66 NE6       30.10R
DANVILLE*      CLEAR     59  52  76 E5        30.08R
RANTOUL*       CLEAR     61  48  63 E7        30.11R
MATTOON        CLEAR     60  49  66 CALM      30.09R
PARIS*         CLEAR     53  52  97 CALM      30.10R
$$

ILZ079-100>102-190300-
SOUTHWEST ILLINOIS

CITY           SKY/WX    TMP DP  RH WIND       PRES   REMARKS
ALTON          CLEAR     59  55  88 CALM      30.06R
BELLEVILLE     CLEAR     60  57  87 CALM      30.06R
CAHOKIA*       CLEAR     59  56  89 CALM      30.05R
SPARTA*        CLEAR     58  55  88 CALM      30.06R
$$

ILZ064>066-069>071-074>076-080>082-084>086-088>090-092>094-190300-
SOUTH-CENTRAL ILLINOIS

CITY           SKY/WX    TMP DP  RH WIND       PRES   REMARKS
CARBONDALE     CLEAR     58  55  90 NE3       30.05R
CAIRO*         PTCLDY    65  60  81 NE5       30.03R
EFFINGHAM*     CLEAR     58  53  85 E3        30.08R
MARION         CLEAR     59  55  88 CALM      30.06R
MT. VERNON     CLEAR     55  50  82 CALM      30.07R
CENTRALIA*     CLEAR     56  53  89 CALM      30.07R
SALEM*         CLEAR     59  57  94 CALM      30.07R FOG
METROPOLIS*    CLEAR     62  58  84 CALM      30.03R
$$

ILZ067-068-072-073-078-083-087-091-190300-
SOUTHEAST ILLINOIS

CITY           SKY/WX    TMP DP  RH WIND       PRES   REMARKS
LAWRENCEVILLE  CLEAR     57  53  86 NE3       30.08R
FLORA*         CLEAR     61  54  77 CALM      30.07S
FAIRFIELD*     CLEAR    N/A N/A N/A CALM      30.07R
HARRISBURG*    CLEAR     58  55  89 CALM      30.07R
ROBINSON*      CLEAR     57  55  92 CALM      30.09R
CARMI*         CLEAR     58  56  96 CALM      30.06R
$$

ABBREVIATIONS USED IN REMARKS
   TC - TEMPERATURE IN CELSIUS
  WCI - WIND CHILL INDEX
   HX - HEAT INDEX
  VSB - VISIBILITY
$$



USA.gov is the U.S. government's official web portal to all federal, state and local government web resources and services.